FLOCK 4G 6

导读

FLOCK 4G 6是美国Planet Labs公司Flock 4G星座中的一颗对地观测光学遥感小卫星,于2025年1月14日发射入轨,运行在近地太阳同步轨道。作为SuperDove卫星系列成员,它具备3米分辨率成像能力,每天可完成全球陆地影像更新,服务于农业监测、城市规划、灾害响应等领域,是Planet全球地球观测网络的重要组成部分。

基本信息
目录编号:
62660
目录名称:
FLOCK 4G 6
国际标识:
2025-009BD
轨道中心:
EARTH
卫星名称:
FLOCK 4G 6
卫星全名:
FLOCK 4G 6
卫星状态:
在轨 (已飞行599 天)
发射日期:
2025-01-14 UTC
国别 :
美国 (US)
星等 :
--
轨道信息
数据来源 国际轨道数据
星历时间: 2026-09-04T13:03:53+0800
1天前
查看轨道信息
半长轴: 6851.51km
偏心率: 0.0004309
轨道倾角: 97.389°
近地点辐角 66.496°
升交点赤经 328.253°
平近点角 293.674°
近地点: 470.42km
远地点: 476.326km
周期: 94.067分钟
每日圈数: 15.308174
详细信息
使用方式:
暂无
2D轨道图
3D轨道图
轨道高度分析图
轨道倾角分析图
轨道综合分析图
查看轨道综合分析图
交会数据列表
事件ID 空间交会对象 最接近时刻(TCA) 交会距离 交会风险概率(CRP) 交会风险指数(CRI) 操作
CDM_260905-180706-266006-395521
2026-09-05T
18:07:06+0000
2.227 km
极远距离
1.874735E-6 低风险 0.4
CDM_260905-110605-388906-266021
2026-09-05T
11:06:19+0000
2.553 km
极远距离
1.471301E-6 低风险 0.38
CDM_260904-042605-771406-266022
2026-09-04T
04:26:08+0000
2.793 km
极远距离
1.394603E-6 低风险 0.38
CDM_260830-205405-683706-266023
2026-08-30T
20:54:47+0000
2.908 km
极远距离
1.288338E-6 低风险 0.37